Flag for Kazakhstan Weather past 2 weeks in Aqtobe, Kazakhstan

Now
82 °F

Sunny.


Feels Like: 80 °F
Forecast: 56 / 83 °F
Wind: 10 mph from North

Location: Aktjubinsk

Current Time: Jul 28, 2015 at 7:14:05 PM

Latest Report: Jul 28, 2015 at 6:30 PM


Visibility: 10 mi

Pressure: 29.80 "Hg

Humidity: 17%

Dew point: 34 °F

Location of AqtobeLocation

Historic Weather in Aqtobe — Graph

°F

Aqtobe temperature yesterday

Maximum temperature yesterday: 84 °F (at 5:00 PM)
Minimum temperature yesterday: 55 °F (at 3:00 AM)
Average temperature yesterday: 70 °F

Past Weeks' High & Low Weather Summary

 TemperatureHumidityPressure
High95 °F (Jul 16, 5:30 PM)100% (Jul 23, 12:00 AM)29.98 "Hg (Jul 23, 12:00 AM)
Low48 °F (Jul 19, 5:00 AM)12% (Jul 15, 4:00 PM)29.62 "Hg (Jul 17, 2:00 PM)
Average73 °F42%29.80 "Hg
* Reported Jul 13 5:00 PM — Jul 28 5:30 PM, Aqtobe, Weather by CustomWeather, © 2015

Note: Actual official high and low records may vary slightly from our data, if they occured in-between our weather recording intervals... More about our weather records

Advertising

Aqtobe weather history for previous 24 hours

 ConditionsComfort  
Time TempWeatherWind HumidityBarometerVisibility
5:30 PM
Tue, Jul 28
82 °FSunny.10 mph17%29.80 "Hg10 mi
5:00 PM82 °FPassing clouds.10 mph17%29.80 "HgN/A
4:30 PM82 °FSunny.15 mph17%29.80 "Hg10 mi
4:00 PM82 °FPassing clouds.10 mph19%29.83 "HgN/A
3:30 PM82 °FSunny.10 mph19%29.80 "Hg10 mi
3:00 PM82 °FPassing clouds.10 mph19%29.83 "HgN/A
2:30 PM81 °FSunny.10 mph21%29.83 "Hg10 mi
2:00 PM81 °FPassing clouds.10 mph21%29.83 "HgN/A
1:30 PM79 °FSunny.15 mph24%29.83 "Hg10 mi
1:00 PM79 °FSunny.13 mph24%29.83 "Hg10 mi
12:30 PM77 °FPassing clouds.10 mph28%29.83 "HgN/A
12:00 PM75 °FPassing clouds.10 mph29%29.83 "HgN/A
11:30 AM75 °FPassing clouds.10 mph29%29.86 "HgN/A
11:00 AM73 °FSunny.13 mph31%29.86 "Hg10 mi
10:30 AM73 °FPassing clouds.10 mph36%29.86 "HgN/A
10:00 AM72 °FSunny.10 mph38%29.86 "Hg10 mi
9:30 AM70 °FClear.6 mph40%29.86 "Hg4 mi
9:00 AM68 °FClear.6 mph46%29.86 "Hg5 mi
8:30 AM66 °FClear.3 mph46%29.86 "Hg5 mi
8:00 AM63 °FClear.3 mph56%29.86 "Hg4 mi
7:30 AM61 °FClear.3 mph55%29.86 "Hg3 mi
7:00 AM59 °FClear.3 mph63%29.86 "Hg5 mi
6:30 AM55 °FSunny.3 mph72%29.86 "Hg10 mi
6:00 AM54 °FSunny.3 mph72%29.86 "Hg10 mi
5:30 AM54 °FClear.3 mph72%29.83 "Hg10 mi
5:00 AM54 °FClear.1 mph72%29.83 "Hg10 mi
4:30 AM55 °FClear.3 mph67%29.83 "Hg10 mi
4:00 AM55 °FClear.6 mph63%29.83 "Hg10 mi
3:30 AM57 °FClear.6 mph59%29.83 "Hg10 mi
3:00 AM57 °FClear.6 mph59%29.83 "Hg10 mi
2:30 AM59 °FClear.No wind51%29.83 "Hg10 mi
2:00 AM61 °FClear.No wind52%29.83 "Hg10 mi
1:30 AM61 °FClear.No wind52%29.83 "Hg10 mi
1:00 AM66 °FClear.3 mph43%29.83 "Hg10 mi
12:30 AM68 °FClear.6 mph40%29.80 "Hg10 mi
12:00 AM68 °FClear.6 mph40%29.80 "Hg10 mi
11:30 PM
Mon, Jul 27
70 °FClear.6 mph38%29.80 "Hg10 mi
11:00 PM70 °FClear.8 mph35%29.80 "Hg10 mi
10:30 PM72 °FClear.6 mph33%29.80 "Hg10 mi
10:00 PM73 °FClear.8 mph29%29.80 "Hg10 mi
9:30 PM73 °FClear.8 mph31%29.80 "Hg10 mi
9:00 PM75 °FSunny.10 mph29%29.80 "Hg10 mi
8:30 PM77 °FSunny.10 mph28%29.80 "Hg10 mi
8:00 PM79 °FSunny.15 mph26%29.77 "Hg10 mi
7:30 PM79 °FSunny.15 mph26%29.77 "Hg10 mi
7:00 PM81 °FSunny.17 mph26%29.77 "Hg10 mi
Weather by CustomWeather, © 2015

See weather overviewHow to use our weather pages